星链-4140 (STARLINK-4140 )

导读

STARLINK-4140是美国SpaceX星链互联网卫星项目中的一员,于2022年7月24日发射升空,属于星链低轨卫星星座组网卫星,承载卫星互联网通信任务。它运行在近地轨道,通过星座组网为全球提供宽带互联网接入服务,助力实现全球覆盖的卫星通信网络构建。

基本信息
目录编号:
53259
目录名称:
STARLINK-4140
国际标识:
2022-086T
轨道中心:
EARTH
卫星名称:
星链-4140
卫星全名:
星链-4140 (STARLINK-4140 )
卫星状态:
在轨 (已飞行1424 天)
发射日期:
2022-07-24 UTC
国别 :
美国 (US)
星等 :
--
轨道信息
数据来源 国际轨道数据 AOE轨道数据
星历时间 2026-06-17T11:15:45+0800
8小时前
查看轨道信息
2026-06-14T03:00:00+0800
3天前
查看轨道信息
半长轴 6917.893km 6917.893km
偏心率 0.0001487 0.000143
轨道倾角 53.160° 53.158°
近地点辐角 78.805° 73.380°
升交点赤经 107.237° 122.274°
平近点角 281.311° 111.336°
近地点 538.727km 538.766km
远地点 540.785km 540.746km
周期 95.438分钟 95.438分钟
每日圈数 15.08836 15.088359
详细信息
固有亮度:
5
最大亮度:
2.5
卫星平台:
Starlink v1.5
覆盖范围:
全球
运营商:
太空探索技术公司
运营商所在国:
美国
制造商(研发单位):
太空探索技术公司
制造商所在国:
美国
使用方式:
暂无
卫星简介
星链(Starlink)计划是由太空探索技术公司(SpaceX)提出的一个巨型低轨卫星互联网星座项目,计划在2019年至2024年间在太空搭建由约1.2万颗卫星组成的“星链”网络,其中1584颗将部署在地球上空550千米处的近地轨道,并从2020年开始工作。该卫星仍在工作。
2D轨道图
3D轨道图
轨道高度分析图
轨道倾角分析图
轨道综合分析图
查看轨道综合分析图